Regional Weather Roundup
Issued by NWS Charleston, WV

Home | Current Version | Previous Version | Graphics & Text | Print | Product List | Glossary On
Versions: 1 2 3 4 5 6 7 8 9 10 11 12 13 14 15 16 17 18 19 20 21 22 23 24 25 26 27 28 29 30 31 32 33 34 35 36 37 38 39 40 41 42 43 44 45 46 47 48 49 50
000
ASUS41 KRLX 281410
RWRRLX
West Virginia Regional Weather Roundup
National Weather Service Charleston WV
1000 AM EDT THU MAY 28 2015

Note: "fair" indicates few or no clouds below 12,000 feet with no
significant weather and/or obstructions to visibility.

WVZ003-281500-
Northern Panhandle of West Virginia

CITY           SKY/WX    TMP DP  RH WIND       PRES   REMARKS
WHEELING       MOSUNNY   72  61  68 N6        30.25S
$$

WVZ009-281500-
Northwest West Virginia

CITY           SKY/WX    TMP DP  RH WIND       PRES   REMARKS
PARKERSBURG    MOSUNNY   73  61  65 CALM      30.27R
$$

WVZ006-281500-
Western West Virginia

CITY           SKY/WX    TMP DP  RH WIND       PRES   REMARKS
HUNTINGTON     MOSUNNY   72  62  71 CALM      30.24S
$$

WVZ015-281500-
West Central West Virginia

CITY           SKY/WX    TMP DP  RH WIND       PRES   REMARKS
CHARLESTON     PTSUNNY   73  60  63 CALM      30.24F
$$

WVZ022-031-281500-
North Central West Virginia

CITY           SKY/WX    TMP DP  RH WIND       PRES   REMARKS
CLARKSBURG     SUNNY     74  61  63 CALM      30.25S
MORGANTOWN     MOSUNNY   75  59  57 VRB5      30.26S
$$

WVZ025-035-042-045-281500-
Southern West Virginia

CITY           SKY/WX    TMP DP  RH WIND       PRES   REMARKS
BECKLEY        CLOUDY    68  57  68 N8        30.32R
LOGAN            N/A     70  63  78 CALM      30.24F
BLUEFIELD      MOSUNNY   73  59  61 VRB3      30.33S
LEWISBURG      SUNNY     73  58  59 N3        30.30S
$$

WVZ047-281500-
Northern Mountains of West Virginia

CITY           SKY/WX    TMP DP  RH WIND       PRES   REMARKS
ELKINS         SUNNY     72  59  63 SE3       30.29S
$$

WVZ052-281500-
Eastern Panhandle of West Virginia

CITY           SKY/WX    TMP DP  RH WIND       PRES   REMARKS
MARTINSBURG    MOSUNNY   79  63  57 VRB5      30.20S
PETERSBURG     SUNNY     76  61  61 CALM      30.23F
$$


USA.gov is the U.S. government's official web portal to all federal, state and local government web resources and services.